TimeCST,TemperatureF,Dew PointF,Humidity,Sea Level PressureIn,VisibilityMPH,Wind Direction,Wind SpeedMPH,Gust SpeedMPH,PrecipitationIn,Events,Conditions,WindDirDegrees,DateUTC
12:12 AM,33.8,33.8,100,29.90,5.0,Calm,Calm,-,N/A,,Overcast,0,2012-11-07 06:12:00
12:33 AM,33.8,33.8,100,29.90,4.0,Calm,Calm,-,N/A,,Overcast,0,2012-11-07 06:33:00
12:53 AM,33.8,33.8,100,29.91,5.0,Calm,Calm,-,N/A,,Overcast,0,2012-11-07 06:53:00
1:12 AM,33.8,33.8,100,29.91,5.0,Calm,Calm,-,N/A,,Overcast,0,2012-11-07 07:12:00
1:33 AM,33.8,33.8,100,29.92,1.0,Calm,Calm,-,N/A,,Overcast,0,2012-11-07 07:33:00
1:53 AM,35.6,33.8,93,29.93,1.0,Calm,Calm,-,N/A,,Overcast,0,2012-11-07 07:53:00
2:12 AM,35.6,35.6,100,29.93,0.8,Calm,Calm,-,N/A,,Overcast,0,2012-11-07 08:12:00
2:33 AM,35.6,35.6,100,29.94,0.8,Calm,Calm,-,N/A,,Overcast,0,2012-11-07 08:33:00
2:53 AM,35.6,35.6,100,29.94,0.5,Calm,Calm,-,N/A,Fog,Fog,0,2012-11-07 08:53:00
3:12 AM,35.6,35.6,100,29.94,0.8,Calm,Calm,-,N/A,,Overcast,0,2012-11-07 09:12:00
3:33 AM,35.6,35.6,100,29.95,3.0,Calm,Calm,-,N/A,,Overcast,0,2012-11-07 09:33:00
3:53 AM,35.6,35.6,100,29.95,4.0,Calm,Calm,-,N/A,,Overcast,0,2012-11-07 09:53:00
4:12 AM,35.6,33.8,93,29.95,5.0,Calm,Calm,-,N/A,,Overcast,0,2012-11-07 10:12:00
4:33 AM,35.6,33.8,93,29.95,4.0,Calm,Calm,-,N/A,,Overcast,0,2012-11-07 10:33:00
4:53 AM,35.6,33.8,93,29.97,5.0,WNW,3.5,-,N/A,,Overcast,290,2012-11-07 10:53:00
5:11 AM,35.6,33.8,93,29.97,5.0,Calm,Calm,-,N/A,,Overcast,0,2012-11-07 11:11:00
5:33 AM,35.6,33.8,93,29.97,5.0,Calm,Calm,-,N/A,,Overcast,0,2012-11-07 11:33:00
5:52 AM,35.6,33.8,93,29.97,5.0,Calm,Calm,-,N/A,,Overcast,0,2012-11-07 11:52:00
6:13 AM,35.6,33.8,93,29.98,4.0,WNW,3.5,-,N/A,Rain,Light Rain,300,2012-11-07 12:13:00
6:33 AM,35.6,33.8,93,29.98,5.0,Calm,Calm,-,N/A,Rain,Light Rain,0,2012-11-07 12:33:00
6:52 AM,35.6,33.8,93,29.99,5.0,Calm,Calm,-,N/A,,Overcast,0,2012-11-07 12:52:00
7:13 AM,35.6,33.8,93,29.99,5.0,Calm,Calm,-,N/A,,Overcast,0,2012-11-07 13:13:00
7:33 AM,35.6,33.8,93,30.00,2.0,Calm,Calm,-,N/A,,Overcast,0,2012-11-07 13:33:00
7:52 AM,35.6,35.6,100,30.00,0.2,Calm,Calm,-,N/A,Fog,Fog,0,2012-11-07 13:52:00
8:13 AM,35.6,35.6,100,30.01,0.2,West,3.5,-,N/A,Fog,Fog,270,2012-11-07 14:13:00
8:33 AM,35.6,35.6,100,30.01,0.8,West,3.5,-,N/A,,Overcast,270,2012-11-07 14:33:00
8:52 AM,35.6,35.6,100,30.02,1.5,West,3.5,-,N/A,,Overcast,270,2012-11-07 14:52:00
9:13 AM,35.6,35.6,100,30.02,1.5,West,4.6,-,N/A,,Overcast,270,2012-11-07 15:13:00
9:33 AM,35.6,35.6,100,30.02,1.2,West,4.6,-,N/A,,Overcast,270,2012-11-07 15:33:00
9:52 AM,35.6,35.6,100,30.03,2.0,West,3.5,-,N/A,,Overcast,280,2012-11-07 15:52:00
10:13 AM,35.6,35.6,100,30.03,4.0,West,3.5,-,N/A,,Overcast,270,2012-11-07 16:13:00
10:33 AM,35.6,35.6,100,30.02,4.0,WSW,3.5,-,N/A,,Overcast,250,2012-11-07 16:33:00
10:52 AM,35.6,35.6,100,30.02,2.0,West,3.5,-,N/A,,Overcast,280,2012-11-07 16:52:00
11:13 AM,35.6,35.6,100,30.02,4.0,WSW,3.5,-,N/A,,Overcast,250,2012-11-07 17:13:00
11:33 AM,35.6,35.6,100,30.01,7.0,West,3.5,-,N/A,,Overcast,270,2012-11-07 17:33:00
11:52 AM,35.6,35.6,100,30.01,10.0,West,3.5,-,N/A,,Overcast,260,2012-11-07 17:52:00
12:13 PM,35.6,35.6,100,30.01,5.0,WSW,4.6,-,N/A,,Overcast,250,2012-11-07 18:13:00
12:33 PM,35.6,35.6,100,30.01,7.0,West,4.6,-,N/A,,Overcast,270,2012-11-07 18:33:00
12:52 PM,35.6,35.6,100,30.01,10.0,West,4.6,-,N/A,,Overcast,260,2012-11-07 18:52:00
1:13 PM,35.6,35.6,100,30.00,7.0,West,4.6,-,N/A,,Overcast,260,2012-11-07 19:13:00
1:33 PM,35.6,35.6,100,30.00,7.0,West,3.5,-,N/A,,Overcast,260,2012-11-07 19:33:00
1:52 PM,35.6,35.6,100,30.00,10.0,WSW,4.6,-,N/A,,Overcast,240,2012-11-07 19:52:00
2:13 PM,35.6,35.6,100,30.01,10.0,West,3.5,-,N/A,,Overcast,260,2012-11-07 20:13:00
2:33 PM,35.6,35.6,100,30.01,10.0,Calm,Calm,-,N/A,,Overcast,0,2012-11-07 20:33:00
2:52 PM,35.6,35.6,100,30.01,10.0,West,3.5,-,N/A,,Overcast,270,2012-11-07 20:52:00
3:13 PM,35.6,33.8,93,30.01,10.0,Calm,Calm,-,N/A,,Overcast,0,2012-11-07 21:13:00
3:37 PM,35.6,33.8,93,30.01,10.0,Calm,Calm,-,N/A,,Overcast,0,2012-11-07 21:37:00
3:52 PM,35.6,33.8,93,30.02,10.0,WSW,3.5,-,N/A,,Overcast,250,2012-11-07 21:52:00
4:13 PM,35.6,33.8,93,30.03,10.0,Calm,Calm,-,N/A,,Overcast,0,2012-11-07 22:13:00
4:32 PM,35.6,33.8,93,30.02,10.0,Calm,Calm,-,N/A,,Overcast,0,2012-11-07 22:32:00
4:53 PM,35.6,33.8,93,30.03,10.0,Calm,Calm,-,N/A,,Overcast,0,2012-11-07 22:53:00
5:13 PM,35.6,33.8,93,30.03,10.0,Calm,Calm,-,N/A,,Overcast,0,2012-11-07 23:13:00
5:33 PM,35.6,33.8,93,30.02,10.0,SSE,3.5,-,N/A,,Overcast,160,2012-11-07 23:33:00
5:53 PM,35.6,33.8,93,30.02,10.0,Calm,Calm,-,N/A,,Overcast,0,2012-11-07 23:53:00
6:12 PM,33.8,33.8,100,30.02,10.0,Calm,Calm,-,N/A,,Overcast,0,2012-11-08 00:12:00
6:33 PM,33.8,33.8,100,30.01,10.0,SSE,4.6,-,N/A,,Overcast,150,2012-11-08 00:33:00
6:52 PM,33.8,33.8,100,30.01,10.0,Calm,Calm,-,N/A,,Overcast,0,2012-11-08 00:52:00
7:13 PM,33.8,33.8,100,30.01,10.0,South,3.5,-,N/A,,Overcast,170,2012-11-08 01:13:00
7:33 PM,33.8,33.8,100,30.00,10.0,SSE,3.5,-,N/A,,Overcast,160,2012-11-08 01:33:00
7:52 PM,33.8,33.8,100,30.00,10.0,SSE,3.5,-,N/A,,Mostly Cloudy,160,2012-11-08 01:52:00
8:13 PM,33.8,32.0,93,29.99,10.0,SSE,3.5,-,N/A,,Scattered Clouds,150,2012-11-08 02:13:00
8:33 PM,32.0,32.0,100,29.99,10.0,Calm,Calm,-,N/A,,Clear,0,2012-11-08 02:33:00
8:52 PM,32.0,32.0,100,29.99,10.0,SSE,3.5,-,N/A,,Clear,150,2012-11-08 02:52:00
9:13 PM,30.2,30.2,100,30.00,10.0,Calm,Calm,-,N/A,,Clear,0,2012-11-08 03:13:00
9:33 PM,30.2,30.2,100,29.99,7.0,SE,3.5,-,N/A,,Scattered Clouds,130,2012-11-08 03:33:00
9:52 PM,30.2,30.2,100,29.99,10.0,SE,6.9,-,N/A,,Mostly Cloudy,140,2012-11-08 03:52:00
10:13 PM,33.8,32.0,93,30.00,10.0,SSE,4.6,-,N/A,,Overcast,160,2012-11-08 04:13:00
10:33 PM,33.8,32.0,93,29.99,10.0,SSE,6.9,-,N/A,,Overcast,160,2012-11-08 04:33:00
10:52 PM,33.8,32.0,93,29.99,10.0,South,5.8,-,N/A,,Overcast,170,2012-11-08 04:52:00
11:13 PM,33.8,32.0,93,29.98,10.0,SSE,5.8,-,N/A,,Overcast,160,2012-11-08 05:13:00
11:33 PM,33.8,32.0,93,29.97,10.0,SSE,6.9,-,N/A,,Overcast,160,2012-11-08 05:33:00
11:52 PM,33.8,33.8,100,29.97,10.0,SSE,5.8,-,N/A,,Overcast,160,2012-11-08 05:52:00